Location: Bauerbach
(50.4985°N, 10.3912°E)
Time: 17:53:03
(UTC+00:00)

Resurs 01 Rocket - Pass Details

Date: 13 January 2026
Orbit: 628 x 635 km, 97.7° (Epoch: 18 February)

Event Time Altitude Azimuth Distance (km) Brightness Sun altitude
Rises 06:31:14 0° 22° (NNE) 2,934 5.0 -6.8°
Reaches altitude 10° 06:33:41 10° 33° (NNE) 2,022 4.3 -6.5°
Maximum altitude 06:37:32 29° 94° (E) 1,164 3.9 -5.9°
Drops below altitude 10° 06:41:22 10° 155° (SSE) 2,011 5.1 -5.4°
Sets 06:43:47 0° 167° (SSE) 2,915 5.7 -5.0°
